COSMOS 1275 DEB, 20089

Orbit data source: Space-Track

COSMOS 1275 DEB, 20089 is space debris in LEO originally from a launch on Thu, 04 Jun 1981 UTC launched from the Plesetsk Missile And Space Complex (PKMTR). Debris objects in space refer to the collection of defunct objects orbiting the Earth. Examples of debris include non-operational satellites, rocket bodies, and fragments generated from explosions, collisions, or faulty payload assembly.

Loading next visibility...
Identifier
20089, 1981-053MK
Orbit
LEO
Country
Flag of CISCIS
Related business
Manufacturer
Unknown
Mission
Spacecraft
Bus & Motor
Unknown
Mass
Unknown
Launch date (UTC)
1981-06-04 (45 years ago)
Launch vehicle
Unknown
Launch site
Plesetsk Missile And Space Complex (PKMTR)
Object type
Payload
Rocket body
Debris
Shape & HBR
Unknown shape, 0.1 m
Radar Cross Section
Small (<0.1 m²)

Expand to show TLE details & history
Last TLE update: 3 days ago

TLE from 3 days ago
0 COSMOS 1275 DEB
1 20089U 81053MK  26034.68580742  .00003206  00000-0  17228-2 0  9994
2 20089  82.7437 124.4716 0046320 135.5154 224.9757 14.12104527715451
Epoch: 2026-02-03T16:27Z
TLE epoch observation values (Epoch: 2026-02-03T16:27:33.761Z)
Latitude
0.00001°
Longitude
103.71774°
Altitude
878.899 km
Speed
7.401 km/s
True Right ascension
08h 17m 53s
True Declination
0° 00' 00"
Sunlit
Object was in full shadow at epoch
Visualization orbit readout
Latitude
Unknown
Longitude
Unknown
Altitude
Unknown
Speed
Unknown
Apparent Right ascension
Unknown
Apparent Declination
Unknown
Sunlit
N/A
Visualization observer readout
Local Sidereal Time
20:38:32
Azimuth
Unknown
Elevation
Unknown
Doppler factor
Unknown
Orbital elements
Apogee altitude
882.762 km
Perigee altitude
815.807 km
Semi-major axis
7,227.421 km
Eccentricity
0.00463
Inclination
82.7437°
RAAN
124.4716°
Arg. of periapsis
135.5154°
True anomaly
224.60207°
Mean anomaly
224.9757°
Eccentric anomaly
224.78873°
Mean motion
3.53239 °/min
Orbital period
101.91 mins
BSTAR
0.0017228
Loading maneuver chart data...
Computing Atmospheric mass density...
Loading historical data...
Loading historical data...
Loading historical data...
Loading historical data...
Loading historical data...
Loading historical data...
Loading historical data...

Documentation

Showing up to 5 results
|